<?xml version="1.0" encoding="ISO-8859-1" standalone="yes"?>
<gpx
  version="1.1"
  creator="GPS-Format-Konverter - http://www.astr-software.de.ki"
  xmlns:xsi="http://www.w3.org/2001/XMLSchema-instance"  xmlns:topografix="http://www.topografix.com/GPX/Private/TopoGrafix/0/1"
  xmlns="http://www.topografix.com/GPX/1/1"
  xsi:schemaLocation="http://www.topografix.com/GPX/1/1 http://www.topografix.com/GPX/1/1/gpx.xsd">
<metadata>
  <time>2008-12-08T10:51:45Z</time>
</metadata>
<trk>
  <name>Track_mw05</name>
  <trkseg>
    <trkpt lat="50.9236997" lon="14.2840570">
       <ele>0</ele>
       <time>2008-12-08T10:51:45Z</time>
       <type>Trackpoint</type>
    </trkpt>
    <trkpt lat="50.9235544" lon="14.2844980">
       <ele>0</ele>
       <time>2008-12-08T10:51:45Z</time>
       <type>Trackpoint</type>
    </trkpt>
    <trkpt lat="50.9236397" lon="14.2855905">
       <ele>0</ele>
       <time>2008-12-08T10:51:45Z</time>
       <type>Trackpoint</type>
    </trkpt>
    <trkpt lat="50.9237478" lon="14.2863958">
       <ele>0</ele>
       <time>2008-12-08T10:51:45Z</time>
       <type>Trackpoint</type>
    </trkpt>
    <trkpt lat="50.9238388" lon="14.2867264">
       <ele>0</ele>
       <time>2008-12-08T10:51:45Z</time>
       <type>Trackpoint</type>
    </trkpt>
    <trkpt lat="50.9243463" lon="14.2872264">
       <ele>0</ele>
       <time>2008-12-08T10:51:45Z</time>
       <type>Trackpoint</type>
    </trkpt>
    <trkpt lat="50.9246661" lon="14.2874000">
       <ele>0</ele>
       <time>2008-12-08T10:51:45Z</time>
       <type>Trackpoint</type>
    </trkpt>
    <trkpt lat="50.9248976" lon="14.2878228">
       <ele>0</ele>
       <time>2008-12-08T10:51:45Z</time>
       <type>Trackpoint</type>
    </trkpt>
    <trkpt lat="50.9251838" lon="14.2883129">
       <ele>0</ele>
       <time>2008-12-08T10:51:45Z</time>
       <type>Trackpoint</type>
    </trkpt>
    <trkpt lat="50.9254960" lon="14.2886534">
       <ele>0</ele>
       <time>2008-12-08T10:51:45Z</time>
       <type>Trackpoint</type>
    </trkpt>
    <trkpt lat="50.9257749" lon="14.2884564">
       <ele>0</ele>
       <time>2008-12-08T10:51:45Z</time>
       <type>Trackpoint</type>
    </trkpt>
    <trkpt lat="50.9259058" lon="14.2883340">
       <ele>0</ele>
       <time>2008-12-08T10:51:45Z</time>
       <type>Trackpoint</type>
    </trkpt>
    <trkpt lat="50.9262567" lon="14.2876113">
       <ele>0</ele>
       <time>2008-12-08T10:51:45Z</time>
       <type>Trackpoint</type>
    </trkpt>
    <trkpt lat="50.9266035" lon="14.2869797">
       <ele>0</ele>
       <time>2008-12-08T10:51:45Z</time>
       <type>Trackpoint</type>
    </trkpt>
    <trkpt lat="50.9269104" lon="14.2868010">
       <ele>0</ele>
       <time>2008-12-08T10:51:45Z</time>
       <type>Trackpoint</type>
    </trkpt>
    <trkpt lat="50.9272378" lon="14.2870213">
       <ele>0</ele>
       <time>2008-12-08T10:51:45Z</time>
       <type>Trackpoint</type>
    </trkpt>
    <trkpt lat="50.9273775" lon="14.2873422">
       <ele>0</ele>
       <time>2008-12-08T10:51:45Z</time>
       <type>Trackpoint</type>
    </trkpt>
    <trkpt lat="50.9272363" lon="14.2874787">
       <ele>0</ele>
       <time>2008-12-08T10:51:45Z</time>
       <type>Trackpoint</type>
    </trkpt>
    <trkpt lat="50.9268004" lon="14.2881612">
       <ele>0</ele>
       <time>2008-12-08T10:51:45Z</time>
       <type>Trackpoint</type>
    </trkpt>
    <trkpt lat="50.9266194" lon="14.2887507">
       <ele>0</ele>
       <time>2008-12-08T10:51:45Z</time>
       <type>Trackpoint</type>
    </trkpt>
    <trkpt lat="50.9263884" lon="14.2893802">
       <ele>0</ele>
       <time>2008-12-08T10:51:45Z</time>
       <type>Trackpoint</type>
    </trkpt>
    <trkpt lat="50.9263383" lon="14.2896338">
       <ele>0</ele>
       <time>2008-12-08T10:51:45Z</time>
       <type>Trackpoint</type>
    </trkpt>
    <trkpt lat="50.9263053" lon="14.2901486">
       <ele>0</ele>
       <time>2008-12-08T10:51:45Z</time>
       <type>Trackpoint</type>
    </trkpt>
    <trkpt lat="50.9261557" lon="14.2911077">
       <ele>0</ele>
       <time>2008-12-08T10:51:45Z</time>
       <type>Trackpoint</type>
    </trkpt>
    <trkpt lat="50.9261508" lon="14.2914274">
       <ele>0</ele>
       <time>2008-12-08T10:51:45Z</time>
       <type>Trackpoint</type>
    </trkpt>
    <trkpt lat="50.9262041" lon="14.2917385">
       <ele>0</ele>
       <time>2008-12-08T10:51:45Z</time>
       <type>Trackpoint</type>
    </trkpt>
    <trkpt lat="50.9260615" lon="14.2921188">
       <ele>0</ele>
       <time>2008-12-08T10:51:45Z</time>
       <type>Trackpoint</type>
    </trkpt>
    <trkpt lat="50.9260998" lon="14.2923367">
       <ele>0</ele>
       <time>2008-12-08T10:51:45Z</time>
       <type>Trackpoint</type>
    </trkpt>
    <trkpt lat="50.9262641" lon="14.2927519">
       <ele>0</ele>
       <time>2008-12-08T10:51:45Z</time>
       <type>Trackpoint</type>
    </trkpt>
    <trkpt lat="50.9263674" lon="14.2930229">
       <ele>0</ele>
       <time>2008-12-08T10:51:45Z</time>
       <type>Trackpoint</type>
    </trkpt>
    <trkpt lat="50.9264570" lon="14.2935974">
       <ele>0</ele>
       <time>2008-12-08T10:51:45Z</time>
       <type>Trackpoint</type>
    </trkpt>
    <trkpt lat="50.9265556" lon="14.2937612">
       <ele>0</ele>
       <time>2008-12-08T10:51:45Z</time>
       <type>Trackpoint</type>
    </trkpt>
    <trkpt lat="50.9266796" lon="14.2937905">
       <ele>0</ele>
       <time>2008-12-08T10:51:45Z</time>
       <type>Trackpoint</type>
    </trkpt>
    <trkpt lat="50.9267713" lon="14.2938925">
       <ele>0</ele>
       <time>2008-12-08T10:51:45Z</time>
       <type>Trackpoint</type>
    </trkpt>
    <trkpt lat="50.9267239" lon="14.2942989">
       <ele>0</ele>
       <time>2008-12-08T10:51:45Z</time>
       <type>Trackpoint</type>
    </trkpt>
    <trkpt lat="50.9271059" lon="14.2952270">
       <ele>0</ele>
       <time>2008-12-08T10:51:45Z</time>
       <type>Trackpoint</type>
    </trkpt>
    <trkpt lat="50.9273310" lon="14.2960000">
       <ele>0</ele>
       <time>2008-12-08T10:51:45Z</time>
       <type>Trackpoint</type>
    </trkpt>
    <trkpt lat="50.9274021" lon="14.2963436">
       <ele>0</ele>
       <time>2008-12-08T10:51:45Z</time>
       <type>Trackpoint</type>
    </trkpt>
    <trkpt lat="50.9274470" lon="14.2972638">
       <ele>0</ele>
       <time>2008-12-08T10:51:45Z</time>
       <type>Trackpoint</type>
    </trkpt>
    <trkpt lat="50.9276010" lon="14.2976932">
       <ele>0</ele>
       <time>2008-12-08T10:51:45Z</time>
       <type>Trackpoint</type>
    </trkpt>
    <trkpt lat="50.9276995" lon="14.2978569">
       <ele>0</ele>
       <time>2008-12-08T10:51:45Z</time>
       <type>Trackpoint</type>
    </trkpt>
    <trkpt lat="50.9277591" lon="14.2980315">
       <ele>0</ele>
       <time>2008-12-08T10:51:45Z</time>
       <type>Trackpoint</type>
    </trkpt>
    <trkpt lat="50.9277227" lon="14.2981951">
       <ele>0</ele>
       <time>2008-12-08T10:51:45Z</time>
       <type>Trackpoint</type>
    </trkpt>
    <trkpt lat="50.9276199" lon="14.2983359">
       <ele>0</ele>
       <time>2008-12-08T10:51:45Z</time>
       <type>Trackpoint</type>
    </trkpt>
    <trkpt lat="50.9273596" lon="14.2983367">
       <ele>0</ele>
       <time>2008-12-08T10:51:45Z</time>
       <type>Trackpoint</type>
    </trkpt>
    <trkpt lat="50.9271671" lon="14.2983301">
       <ele>0</ele>
       <time>2008-12-08T10:51:45Z</time>
       <type>Trackpoint</type>
    </trkpt>
    <trkpt lat="50.9269923" lon="14.2985694">
       <ele>0</ele>
       <time>2008-12-08T10:51:45Z</time>
       <type>Trackpoint</type>
    </trkpt>
    <trkpt lat="50.9269505" lon="14.2988545">
       <ele>0</ele>
       <time>2008-12-08T10:51:45Z</time>
       <type>Trackpoint</type>
    </trkpt>
    <trkpt lat="50.9270072" lon="14.2990897">
       <ele>0</ele>
       <time>2008-12-08T10:51:45Z</time>
       <type>Trackpoint</type>
    </trkpt>
    <trkpt lat="50.9270798" lon="14.2991895">
       <ele>0</ele>
       <time>2008-12-08T10:51:45Z</time>
       <type>Trackpoint</type>
    </trkpt>
    <trkpt lat="50.9274538" lon="14.2992321">
       <ele>0</ele>
       <time>2008-12-08T10:51:45Z</time>
       <type>Trackpoint</type>
    </trkpt>
    <trkpt lat="50.9276421" lon="14.2993298">
       <ele>0</ele>
       <time>2008-12-08T10:51:45Z</time>
       <type>Trackpoint</type>
    </trkpt>
    <trkpt lat="50.9277880" lon="14.2995142">
       <ele>0</ele>
       <time>2008-12-08T10:51:45Z</time>
       <type>Trackpoint</type>
    </trkpt>
    <trkpt lat="50.9278399" lon="14.2998557">
       <ele>0</ele>
       <time>2008-12-08T10:51:45Z</time>
       <type>Trackpoint</type>
    </trkpt>
    <trkpt lat="50.9278336" lon="14.3002057">
       <ele>0</ele>
       <time>2008-12-08T10:51:45Z</time>
       <type>Trackpoint</type>
    </trkpt>
    <trkpt lat="50.9278211" lon="14.3006924">
       <ele>0</ele>
       <time>2008-12-08T10:51:45Z</time>
       <type>Trackpoint</type>
    </trkpt>
    <trkpt lat="50.9277341" lon="14.3006977">
       <ele>0</ele>
       <time>2008-12-08T10:51:45Z</time>
       <type>Trackpoint</type>
    </trkpt>
    <trkpt lat="50.9274951" lon="14.3004417">
       <ele>0</ele>
       <time>2008-12-08T10:51:45Z</time>
       <type>Trackpoint</type>
    </trkpt>
    <trkpt lat="50.9273746" lon="14.3003365">
       <ele>0</ele>
       <time>2008-12-08T10:51:45Z</time>
       <type>Trackpoint</type>
    </trkpt>
    <trkpt lat="50.9271794" lon="14.3003905">
       <ele>0</ele>
       <time>2008-12-08T10:51:45Z</time>
       <type>Trackpoint</type>
    </trkpt>
    <trkpt lat="50.9270546" lon="14.3005898">
       <ele>0</ele>
       <time>2008-12-08T10:51:45Z</time>
       <type>Trackpoint</type>
    </trkpt>
    <trkpt lat="50.9270333" lon="14.3008466">
       <ele>0</ele>
       <time>2008-12-08T10:51:45Z</time>
       <type>Trackpoint</type>
    </trkpt>
    <trkpt lat="50.9270339" lon="14.3010450">
       <ele>0</ele>
       <time>2008-12-08T10:51:45Z</time>
       <type>Trackpoint</type>
    </trkpt>
    <trkpt lat="50.9271932" lon="14.3017800">
       <ele>0</ele>
       <time>2008-12-08T10:51:45Z</time>
       <type>Trackpoint</type>
    </trkpt>
    <trkpt lat="50.9273663" lon="14.3024250">
       <ele>0</ele>
       <time>2008-12-08T10:51:45Z</time>
       <type>Trackpoint</type>
    </trkpt>
    <trkpt lat="50.9276202" lon="14.3029878">
       <ele>0</ele>
       <time>2008-12-08T10:51:45Z</time>
       <type>Trackpoint</type>
    </trkpt>
    <trkpt lat="50.9276969" lon="14.3029965">
       <ele>0</ele>
       <time>2008-12-08T10:51:45Z</time>
       <type>Trackpoint</type>
    </trkpt>
    <trkpt lat="50.9279558" lon="14.3030261">
       <ele>0</ele>
       <time>2008-12-08T10:51:45Z</time>
       <type>Trackpoint</type>
    </trkpt>
    <trkpt lat="50.9281195" lon="14.3030295">
       <ele>0</ele>
       <time>2008-12-08T10:51:45Z</time>
       <type>Trackpoint</type>
    </trkpt>
    <trkpt lat="50.9281750" lon="14.3030816">
       <ele>0</ele>
       <time>2008-12-08T10:51:45Z</time>
       <type>Trackpoint</type>
    </trkpt>
    <trkpt lat="50.9282051" lon="14.3032680">
       <ele>0</ele>
       <time>2008-12-08T10:51:45Z</time>
       <type>Trackpoint</type>
    </trkpt>
    <trkpt lat="50.9280980" lon="14.3037134">
       <ele>0</ele>
       <time>2008-12-08T10:51:45Z</time>
       <type>Trackpoint</type>
    </trkpt>
    <trkpt lat="50.9280211" lon="14.3041317">
       <ele>0</ele>
       <time>2008-12-08T10:51:45Z</time>
       <type>Trackpoint</type>
    </trkpt>
    <trkpt lat="50.9279435" lon="14.3045651">
       <ele>0</ele>
       <time>2008-12-08T10:51:45Z</time>
       <type>Trackpoint</type>
    </trkpt>
    <trkpt lat="50.9279796" lon="14.3052556">
       <ele>0</ele>
       <time>2008-12-08T10:51:45Z</time>
       <type>Trackpoint</type>
    </trkpt>
    <trkpt lat="50.9280513" lon="14.3055841">
       <ele>0</ele>
       <time>2008-12-08T10:51:45Z</time>
       <type>Trackpoint</type>
    </trkpt>
    <trkpt lat="50.9281246" lon="14.3056687">
       <ele>0</ele>
       <time>2008-12-08T10:51:45Z</time>
       <type>Trackpoint</type>
    </trkpt>
    <trkpt lat="50.9282013" lon="14.3056774">
       <ele>0</ele>
       <time>2008-12-08T10:51:45Z</time>
       <type>Trackpoint</type>
    </trkpt>
    <trkpt lat="50.9284959" lon="14.3055585">
       <ele>0</ele>
       <time>2008-12-08T10:51:45Z</time>
       <type>Trackpoint</type>
    </trkpt>
    <trkpt lat="50.9287049" lon="14.3054146">
       <ele>0</ele>
       <time>2008-12-08T10:51:45Z</time>
       <type>Trackpoint</type>
    </trkpt>
    <trkpt lat="50.9288008" lon="14.3054255">
       <ele>0</ele>
       <time>2008-12-08T10:51:45Z</time>
       <type>Trackpoint</type>
    </trkpt>
    <trkpt lat="50.9289233" lon="14.3056988">
       <ele>0</ele>
       <time>2008-12-08T10:51:45Z</time>
       <type>Trackpoint</type>
    </trkpt>
    <trkpt lat="50.9288526" lon="14.3061941">
       <ele>0</ele>
       <time>2008-12-08T10:51:45Z</time>
       <type>Trackpoint</type>
    </trkpt>
    <trkpt lat="50.9286497" lon="14.3064149">
       <ele>0</ele>
       <time>2008-12-08T10:51:45Z</time>
       <type>Trackpoint</type>
    </trkpt>
    <trkpt lat="50.9285441" lon="14.3066164">
       <ele>0</ele>
       <time>2008-12-08T10:51:45Z</time>
       <type>Trackpoint</type>
    </trkpt>
    <trkpt lat="50.9284466" lon="14.3070629">
       <ele>0</ele>
       <time>2008-12-08T10:51:45Z</time>
       <type>Trackpoint</type>
    </trkpt>
    <trkpt lat="50.9284423" lon="14.3075810">
       <ele>0</ele>
       <time>2008-12-08T10:51:45Z</time>
       <type>Trackpoint</type>
    </trkpt>
    <trkpt lat="50.9284296" lon="14.3084946">
       <ele>0</ele>
       <time>2008-12-08T10:51:45Z</time>
       <type>Trackpoint</type>
    </trkpt>
    <trkpt lat="50.9284369" lon="14.3089683">
       <ele>0</ele>
       <time>2008-12-08T10:51:45Z</time>
       <type>Trackpoint</type>
    </trkpt>
    <trkpt lat="50.9284813" lon="14.3092632">
       <ele>0</ele>
       <time>2008-12-08T10:51:45Z</time>
       <type>Trackpoint</type>
    </trkpt>
    <trkpt lat="50.9285086" lon="14.3095103">
       <ele>0</ele>
       <time>2008-12-08T10:51:45Z</time>
       <type>Trackpoint</type>
    </trkpt>
    <trkpt lat="50.9284400" lon="14.3097465">
       <ele>0</ele>
       <time>2008-12-08T10:51:45Z</time>
       <type>Trackpoint</type>
    </trkpt>
    <trkpt lat="50.9282760" lon="14.3101701">
       <ele>0</ele>
       <time>2008-12-08T10:51:45Z</time>
       <type>Trackpoint</type>
    </trkpt>
    <trkpt lat="50.9282697" lon="14.3105202">
       <ele>0</ele>
       <time>2008-12-08T10:51:45Z</time>
       <type>Trackpoint</type>
    </trkpt>
    <trkpt lat="50.9283162" lon="14.3107695">
       <ele>0</ele>
       <time>2008-12-08T10:51:45Z</time>
       <type>Trackpoint</type>
    </trkpt>
    <trkpt lat="50.9284989" lon="14.3112022">
       <ele>0</ele>
       <time>2008-12-08T10:51:45Z</time>
       <type>Trackpoint</type>
    </trkpt>
    <trkpt lat="50.9287426" lon="14.3115656">
       <ele>0</ele>
       <time>2008-12-08T10:51:45Z</time>
       <type>Trackpoint</type>
    </trkpt>
    <trkpt lat="50.9290513" lon="14.3119822">
       <ele>0</ele>
       <time>2008-12-08T10:51:45Z</time>
       <type>Trackpoint</type>
    </trkpt>
    <trkpt lat="50.9291361" lon="14.3122359">
       <ele>0</ele>
       <time>2008-12-08T10:51:45Z</time>
       <type>Trackpoint</type>
    </trkpt>
    <trkpt lat="50.9292640" lon="14.3126013">
       <ele>0</ele>
       <time>2008-12-08T10:51:45Z</time>
       <type>Trackpoint</type>
    </trkpt>
    <trkpt lat="50.9292406" lon="14.3129037">
       <ele>0</ele>
       <time>2008-12-08T10:51:45Z</time>
       <type>Trackpoint</type>
    </trkpt>
    <trkpt lat="50.9292096" lon="14.3131595">
       <ele>0</ele>
       <time>2008-12-08T10:51:45Z</time>
       <type>Trackpoint</type>
    </trkpt>
    <trkpt lat="50.9288840" lon="14.3137476">
       <ele>0</ele>
       <time>2008-12-08T10:51:45Z</time>
       <type>Trackpoint</type>
    </trkpt>
    <trkpt lat="50.9286455" lon="14.3139034">
       <ele>0</ele>
       <time>2008-12-08T10:51:45Z</time>
       <type>Trackpoint</type>
    </trkpt>
    <trkpt lat="50.9284706" lon="14.3143562">
       <ele>0</ele>
       <time>2008-12-08T10:51:45Z</time>
       <type>Trackpoint</type>
    </trkpt>
    <trkpt lat="50.9282332" lon="14.3151222">
       <ele>0</ele>
       <time>2008-12-08T10:51:45Z</time>
       <type>Trackpoint</type>
    </trkpt>
    <trkpt lat="50.9282768" lon="14.3156458">
       <ele>0</ele>
       <time>2008-12-08T10:51:45Z</time>
       <type>Trackpoint</type>
    </trkpt>
    <trkpt lat="50.9284741" lon="14.3168123">
       <ele>0</ele>
       <time>2008-12-08T10:51:45Z</time>
       <type>Trackpoint</type>
    </trkpt>
    <trkpt lat="50.9287379" lon="14.3180016">
       <ele>0</ele>
       <time>2008-12-08T10:51:45Z</time>
       <type>Trackpoint</type>
    </trkpt>
    <trkpt lat="50.9287554" lon="14.3186747">
       <ele>0</ele>
       <time>2008-12-08T10:51:45Z</time>
       <type>Trackpoint</type>
    </trkpt>
    <trkpt lat="50.9287302" lon="14.3196480">
       <ele>0</ele>
       <time>2008-12-08T10:51:45Z</time>
       <type>Trackpoint</type>
    </trkpt>
    <trkpt lat="50.9287682" lon="14.3202929">
       <ele>0</ele>
       <time>2008-12-08T10:51:45Z</time>
       <type>Trackpoint</type>
    </trkpt>
    <trkpt lat="50.9289097" lon="14.3207819">
       <ele>0</ele>
       <time>2008-12-08T10:51:45Z</time>
       <type>Trackpoint</type>
    </trkpt>
    <trkpt lat="50.9291422" lon="14.3216017">
       <ele>0</ele>
       <time>2008-12-08T10:51:45Z</time>
       <type>Trackpoint</type>
    </trkpt>
    <trkpt lat="50.9289692" lon="14.3222225">
       <ele>0</ele>
       <time>2008-12-08T10:51:45Z</time>
       <type>Trackpoint</type>
    </trkpt>
    <trkpt lat="50.9286488" lon="14.3231162">
       <ele>0</ele>
       <time>2008-12-08T10:51:45Z</time>
       <type>Trackpoint</type>
    </trkpt>
    <trkpt lat="50.9284876" lon="14.3234791">
       <ele>0</ele>
       <time>2008-12-08T10:51:45Z</time>
       <type>Trackpoint</type>
    </trkpt>
    <trkpt lat="50.9282116" lon="14.3234017">
       <ele>0</ele>
       <time>2008-12-08T10:51:45Z</time>
       <type>Trackpoint</type>
    </trkpt>
    <trkpt lat="50.9280336" lon="14.3232898">
       <ele>0</ele>
       <time>2008-12-08T10:51:45Z</time>
       <type>Trackpoint</type>
    </trkpt>
    <trkpt lat="50.9276411" lon="14.3232296">
       <ele>0</ele>
       <time>2008-12-08T10:51:45Z</time>
       <type>Trackpoint</type>
    </trkpt>
    <trkpt lat="50.9271691" lon="14.3232214">
       <ele>0</ele>
       <time>2008-12-08T10:51:45Z</time>
       <type>Trackpoint</type>
    </trkpt>
    <trkpt lat="50.9269171" lon="14.3230400">
       <ele>0</ele>
       <time>2008-12-08T10:51:45Z</time>
       <type>Trackpoint</type>
    </trkpt>
    <trkpt lat="50.9267384" lon="14.3229433">
       <ele>0</ele>
       <time>2008-12-08T10:51:45Z</time>
       <type>Trackpoint</type>
    </trkpt>
    <trkpt lat="50.9262542" lon="14.3227811">
       <ele>0</ele>
       <time>2008-12-08T10:51:45Z</time>
       <type>Trackpoint</type>
    </trkpt>
    <trkpt lat="50.9258774" lon="14.3227990">
       <ele>0</ele>
       <time>2008-12-08T10:51:45Z</time>
       <type>Trackpoint</type>
    </trkpt>
    <trkpt lat="50.9255061" lon="14.3229090">
       <ele>0</ele>
       <time>2008-12-08T10:51:45Z</time>
       <type>Trackpoint</type>
    </trkpt>
    <trkpt lat="50.9249031" lon="14.3232365">
       <ele>0</ele>
       <time>2008-12-08T10:51:45Z</time>
       <type>Trackpoint</type>
    </trkpt>
    <trkpt lat="50.9244940" lon="14.3235405">
       <ele>0</ele>
       <time>2008-12-08T10:51:45Z</time>
       <type>Trackpoint</type>
    </trkpt>
    <trkpt lat="50.9241314" lon="14.3238802">
       <ele>0</ele>
       <time>2008-12-08T10:51:45Z</time>
       <type>Trackpoint</type>
    </trkpt>
    <trkpt lat="50.9239249" lon="14.3243904">
       <ele>0</ele>
       <time>2008-12-08T10:51:45Z</time>
       <type>Trackpoint</type>
    </trkpt>
    <trkpt lat="50.9237693" lon="14.3246318">
       <ele>0</ele>
       <time>2008-12-08T10:51:45Z</time>
       <type>Trackpoint</type>
    </trkpt>
    <trkpt lat="50.9233451" lon="14.3248425">
       <ele>0</ele>
       <time>2008-12-08T10:51:45Z</time>
       <type>Trackpoint</type>
    </trkpt>
    <trkpt lat="50.9227176" lon="14.3250757">
       <ele>0</ele>
       <time>2008-12-08T10:51:45Z</time>
       <type>Trackpoint</type>
    </trkpt>
    <trkpt lat="50.9224374" lon="14.3250894">
       <ele>0</ele>
       <time>2008-12-08T10:51:45Z</time>
       <type>Trackpoint</type>
    </trkpt>
    <trkpt lat="50.9221429" lon="14.3249946">
       <ele>0</ele>
       <time>2008-12-08T10:51:45Z</time>
       <type>Trackpoint</type>
    </trkpt>
    <trkpt lat="50.9219854" lon="14.3248546">
       <ele>0</ele>
       <time>2008-12-08T10:51:45Z</time>
       <type>Trackpoint</type>
    </trkpt>
    <trkpt lat="50.9218143" lon="14.3245910">
       <ele>0</ele>
       <time>2008-12-08T10:51:45Z</time>
       <type>Trackpoint</type>
    </trkpt>
    <trkpt lat="50.9216571" lon="14.3240240">
       <ele>0</ele>
       <time>2008-12-08T10:51:45Z</time>
       <type>Trackpoint</type>
    </trkpt>
    <trkpt lat="50.9215292" lon="14.3236586">
       <ele>0</ele>
       <time>2008-12-08T10:51:45Z</time>
       <type>Trackpoint</type>
    </trkpt>
    <trkpt lat="50.9213014" lon="14.3231598">
       <ele>0</ele>
       <time>2008-12-08T10:51:45Z</time>
       <type>Trackpoint</type>
    </trkpt>
    <trkpt lat="50.9211413" lon="14.3228670">
       <ele>0</ele>
       <time>2008-12-08T10:51:45Z</time>
       <type>Trackpoint</type>
    </trkpt>
    <trkpt lat="50.9210394" lon="14.3225656">
       <ele>0</ele>
       <time>2008-12-08T10:51:45Z</time>
       <type>Trackpoint</type>
    </trkpt>
    <trkpt lat="50.9208916" lon="14.3222132">
       <ele>0</ele>
       <time>2008-12-08T10:51:45Z</time>
       <type>Trackpoint</type>
    </trkpt>
    <trkpt lat="50.9207931" lon="14.3220494">
       <ele>0</ele>
       <time>2008-12-08T10:51:45Z</time>
       <type>Trackpoint</type>
    </trkpt>
    <trkpt lat="50.9206604" lon="14.3215767">
       <ele>0</ele>
       <time>2008-12-08T10:51:45Z</time>
       <type>Trackpoint</type>
    </trkpt>
    <trkpt lat="50.9206216" lon="14.3211605">
       <ele>0</ele>
       <time>2008-12-08T10:51:45Z</time>
       <type>Trackpoint</type>
    </trkpt>
    <trkpt lat="50.9206032" lon="14.3209297">
       <ele>0</ele>
       <time>2008-12-08T10:51:45Z</time>
       <type>Trackpoint</type>
    </trkpt>
    <trkpt lat="50.9203024" lon="14.3199193">
       <ele>0</ele>
       <time>2008-12-08T10:51:45Z</time>
       <type>Trackpoint</type>
    </trkpt>
    <trkpt lat="50.9200219" lon="14.3193077">
       <ele>0</ele>
       <time>2008-12-08T10:51:45Z</time>
       <type>Trackpoint</type>
    </trkpt>
    <trkpt lat="50.9198503" lon="14.3186324">
       <ele>0</ele>
       <time>2008-12-08T10:51:45Z</time>
       <type>Trackpoint</type>
    </trkpt>
    <trkpt lat="50.9196875" lon="14.3181868">
       <ele>0</ele>
       <time>2008-12-08T10:51:45Z</time>
       <type>Trackpoint</type>
    </trkpt>
    <trkpt lat="50.9193721" lon="14.3174950">
       <ele>0</ele>
       <time>2008-12-08T10:51:45Z</time>
       <type>Trackpoint</type>
    </trkpt>
    <trkpt lat="50.9190662" lon="14.3168043">
       <ele>0</ele>
       <time>2008-12-08T10:51:45Z</time>
       <type>Trackpoint</type>
    </trkpt>
    <trkpt lat="50.9188190" lon="14.3167303">
       <ele>0</ele>
       <time>2008-12-08T10:51:45Z</time>
       <type>Trackpoint</type>
    </trkpt>
    <trkpt lat="50.9179600" lon="14.3167541">
       <ele>0</ele>
       <time>2008-12-08T10:51:45Z</time>
       <type>Trackpoint</type>
    </trkpt>
    <trkpt lat="50.9173318" lon="14.3167891">
       <ele>0</ele>
       <time>2008-12-08T10:51:45Z</time>
       <type>Trackpoint</type>
    </trkpt>
    <trkpt lat="50.9172388" lon="14.3165040">
       <ele>0</ele>
       <time>2008-12-08T10:51:45Z</time>
       <type>Trackpoint</type>
    </trkpt>
    <trkpt lat="50.9172451" lon="14.3161540">
       <ele>0</ele>
       <time>2008-12-08T10:51:45Z</time>
       <type>Trackpoint</type>
    </trkpt>
    <trkpt lat="50.9173756" lon="14.3156199">
       <ele>0</ele>
       <time>2008-12-08T10:51:45Z</time>
       <type>Trackpoint</type>
    </trkpt>
    <trkpt lat="50.9172520" lon="14.3147366">
       <ele>0</ele>
       <time>2008-12-08T10:51:45Z</time>
       <type>Trackpoint</type>
    </trkpt>
    <trkpt lat="50.9171092" lon="14.3140646">
       <ele>0</ele>
       <time>2008-12-08T10:51:45Z</time>
       <type>Trackpoint</type>
    </trkpt>
    <trkpt lat="50.9170540" lon="14.3133722">
       <ele>0</ele>
       <time>2008-12-08T10:51:45Z</time>
       <type>Trackpoint</type>
    </trkpt>
    <trkpt lat="50.9169612" lon="14.3126601">
       <ele>0</ele>
       <time>2008-12-08T10:51:45Z</time>
       <type>Trackpoint</type>
    </trkpt>
    <trkpt lat="50.9167601" lon="14.3119967">
       <ele>0</ele>
       <time>2008-12-08T10:51:45Z</time>
       <type>Trackpoint</type>
    </trkpt>
    <trkpt lat="50.9165062" lon="14.3116475">
       <ele>0</ele>
       <time>2008-12-08T10:51:45Z</time>
       <type>Trackpoint</type>
    </trkpt>
    <trkpt lat="50.9165899" lon="14.3112911">
       <ele>0</ele>
       <time>2008-12-08T10:51:45Z</time>
       <type>Trackpoint</type>
    </trkpt>
    <trkpt lat="50.9166928" lon="14.3109369">
       <ele>0</ele>
       <time>2008-12-08T10:51:45Z</time>
       <type>Trackpoint</type>
    </trkpt>
    <trkpt lat="50.9164483" lon="14.3108022">
       <ele>0</ele>
       <time>2008-12-08T10:51:45Z</time>
       <type>Trackpoint</type>
    </trkpt>
    <trkpt lat="50.9160252" lon="14.3103575">
       <ele>0</ele>
       <time>2008-12-08T10:51:45Z</time>
       <type>Trackpoint</type>
    </trkpt>
    <trkpt lat="50.9156836" lon="14.3098153">
       <ele>0</ele>
       <time>2008-12-08T10:51:45Z</time>
       <type>Trackpoint</type>
    </trkpt>
    <trkpt lat="50.9152456" lon="14.3088505">
       <ele>0</ele>
       <time>2008-12-08T10:51:45Z</time>
       <type>Trackpoint</type>
    </trkpt>
    <trkpt lat="50.9149075" lon="14.3082325">
       <ele>0</ele>
       <time>2008-12-08T10:51:45Z</time>
       <type>Trackpoint</type>
    </trkpt>
    <trkpt lat="50.9145565" lon="14.3072623">
       <ele>0</ele>
       <time>2008-12-08T10:51:45Z</time>
       <type>Trackpoint</type>
    </trkpt>
    <trkpt lat="50.9144390" lon="14.3066695">
       <ele>0</ele>
       <time>2008-12-08T10:51:45Z</time>
       <type>Trackpoint</type>
    </trkpt>
    <trkpt lat="50.9143774" lon="14.3065405">
       <ele>0</ele>
       <time>2008-12-08T10:51:45Z</time>
       <type>Trackpoint</type>
    </trkpt>
    <trkpt lat="50.9142185" lon="14.3064309">
       <ele>0</ele>
       <time>2008-12-08T10:51:45Z</time>
       <type>Trackpoint</type>
    </trkpt>
    <trkpt lat="50.9138391" lon="14.3060826">
       <ele>0</ele>
       <time>2008-12-08T10:51:45Z</time>
       <type>Trackpoint</type>
    </trkpt>
    <trkpt lat="50.9137111" lon="14.3059308">
       <ele>0</ele>
       <time>2008-12-08T10:51:45Z</time>
       <type>Trackpoint</type>
    </trkpt>
    <trkpt lat="50.9135612" lon="14.3056240">
       <ele>0</ele>
       <time>2008-12-08T10:51:45Z</time>
       <type>Trackpoint</type>
    </trkpt>
    <trkpt lat="50.9133648" lon="14.3050680">
       <ele>0</ele>
       <time>2008-12-08T10:51:45Z</time>
       <type>Trackpoint</type>
    </trkpt>
    <trkpt lat="50.9132089" lon="14.3044708">
       <ele>0</ele>
       <time>2008-12-08T10:51:45Z</time>
       <type>Trackpoint</type>
    </trkpt>
    <trkpt lat="50.9130673" lon="14.3039820">
       <ele>0</ele>
       <time>2008-12-08T10:51:45Z</time>
       <type>Trackpoint</type>
    </trkpt>
    <trkpt lat="50.9129387" lon="14.3036319">
       <ele>0</ele>
       <time>2008-12-08T10:51:45Z</time>
       <type>Trackpoint</type>
    </trkpt>
    <trkpt lat="50.9128525" lon="14.3031951">
       <ele>0</ele>
       <time>2008-12-08T10:51:45Z</time>
       <type>Trackpoint</type>
    </trkpt>
    <trkpt lat="50.9127904" lon="14.3026544">
       <ele>0</ele>
       <time>2008-12-08T10:51:45Z</time>
       <type>Trackpoint</type>
    </trkpt>
    <trkpt lat="50.9127179" lon="14.3023412">
       <ele>0</ele>
       <time>2008-12-08T10:51:45Z</time>
       <type>Trackpoint</type>
    </trkpt>
    <trkpt lat="50.9126338" lon="14.3020724">
       <ele>0</ele>
       <time>2008-12-08T10:51:45Z</time>
       <type>Trackpoint</type>
    </trkpt>
    <trkpt lat="50.9125153" lon="14.3019217">
       <ele>0</ele>
       <time>2008-12-08T10:51:45Z</time>
       <type>Trackpoint</type>
    </trkpt>
    <trkpt lat="50.9122291" lon="14.3016451">
       <ele>0</ele>
       <time>2008-12-08T10:51:45Z</time>
       <type>Trackpoint</type>
    </trkpt>
    <trkpt lat="50.9121805" lon="14.3014414">
       <ele>0</ele>
       <time>2008-12-08T10:51:45Z</time>
       <type>Trackpoint</type>
    </trkpt>
    <trkpt lat="50.9121300" lon="14.3010697">
       <ele>0</ele>
       <time>2008-12-08T10:51:45Z</time>
       <type>Trackpoint</type>
    </trkpt>
    <trkpt lat="50.9120793" lon="14.3009115">
       <ele>0</ele>
       <time>2008-12-08T10:51:45Z</time>
       <type>Trackpoint</type>
    </trkpt>
    <trkpt lat="50.9119808" lon="14.3007478">
       <ele>0</ele>
       <time>2008-12-08T10:51:45Z</time>
       <type>Trackpoint</type>
    </trkpt>
    <trkpt lat="50.9118089" lon="14.3004995">
       <ele>0</ele>
       <time>2008-12-08T10:51:45Z</time>
       <type>Trackpoint</type>
    </trkpt>
    <trkpt lat="50.9116083" lon="14.3002479">
       <ele>0</ele>
       <time>2008-12-08T10:51:45Z</time>
       <type>Trackpoint</type>
    </trkpt>
    <trkpt lat="50.9109482" lon="14.2995019">
       <ele>0</ele>
       <time>2008-12-08T10:51:45Z</time>
       <type>Trackpoint</type>
    </trkpt>
    <trkpt lat="50.9106147" lon="14.2992047">
       <ele>0</ele>
       <time>2008-12-08T10:51:45Z</time>
       <type>Trackpoint</type>
    </trkpt>
    <trkpt lat="50.9102989" lon="14.2991535">
       <ele>0</ele>
       <time>2008-12-08T10:51:45Z</time>
       <type>Trackpoint</type>
    </trkpt>
    <trkpt lat="50.9101497" lon="14.2990451">
       <ele>0</ele>
       <time>2008-12-08T10:51:45Z</time>
       <type>Trackpoint</type>
    </trkpt>
    <trkpt lat="50.9100949" lon="14.2987644">
       <ele>0</ele>
       <time>2008-12-08T10:51:45Z</time>
       <type>Trackpoint</type>
    </trkpt>
    <trkpt lat="50.9102409" lon="14.2985218">
       <ele>0</ele>
       <time>2008-12-08T10:51:45Z</time>
       <type>Trackpoint</type>
    </trkpt>
    <trkpt lat="50.9103342" lon="14.2981665">
       <ele>0</ele>
       <time>2008-12-08T10:51:45Z</time>
       <type>Trackpoint</type>
    </trkpt>
    <trkpt lat="50.9103131" lon="14.2979964">
       <ele>0</ele>
       <time>2008-12-08T10:51:45Z</time>
       <type>Trackpoint</type>
    </trkpt>
    <trkpt lat="50.9101446" lon="14.2978858">
       <ele>0</ele>
       <time>2008-12-08T10:51:45Z</time>
       <type>Trackpoint</type>
    </trkpt>
    <trkpt lat="50.9100015" lon="14.2976408">
       <ele>0</ele>
       <time>2008-12-08T10:51:45Z</time>
       <type>Trackpoint</type>
    </trkpt>
    <trkpt lat="50.9098516" lon="14.2973340">
       <ele>0</ele>
       <time>2008-12-08T10:51:45Z</time>
       <type>Trackpoint</type>
    </trkpt>
    <trkpt lat="50.9097448" lon="14.2971389">
       <ele>0</ele>
       <time>2008-12-08T10:51:45Z</time>
       <type>Trackpoint</type>
    </trkpt>
    <trkpt lat="50.9096065" lon="14.2970012">
       <ele>0</ele>
       <time>2008-12-08T10:51:45Z</time>
       <type>Trackpoint</type>
    </trkpt>
    <trkpt lat="50.9093229" lon="14.2968775">
       <ele>0</ele>
       <time>2008-12-08T10:51:45Z</time>
       <type>Trackpoint</type>
    </trkpt>
    <trkpt lat="50.9090346" lon="14.2966464">
       <ele>0</ele>
       <time>2008-12-08T10:51:45Z</time>
       <type>Trackpoint</type>
    </trkpt>
    <trkpt lat="50.9088319" lon="14.2964404">
       <ele>0</ele>
       <time>2008-12-08T10:51:45Z</time>
       <type>Trackpoint</type>
    </trkpt>
    <trkpt lat="50.9085326" lon="14.2962387">
       <ele>0</ele>
       <time>2008-12-08T10:51:45Z</time>
       <type>Trackpoint</type>
    </trkpt>
    <trkpt lat="50.9082607" lon="14.2960705">
       <ele>0</ele>
       <time>2008-12-08T10:51:45Z</time>
       <type>Trackpoint</type>
    </trkpt>
    <trkpt lat="50.9080826" lon="14.2959588">
       <ele>0</ele>
       <time>2008-12-08T10:51:45Z</time>
       <type>Trackpoint</type>
    </trkpt>
    <trkpt lat="50.9080081" lon="14.2956911">
       <ele>0</ele>
       <time>2008-12-08T10:51:45Z</time>
       <type>Trackpoint</type>
    </trkpt>
    <trkpt lat="50.9079300" lon="14.2954993">
       <ele>0</ele>
       <time>2008-12-08T10:51:45Z</time>
       <type>Trackpoint</type>
    </trkpt>
    <trkpt lat="50.9078787" lon="14.2953562">
       <ele>0</ele>
       <time>2008-12-08T10:51:45Z</time>
       <type>Trackpoint</type>
    </trkpt>
    <trkpt lat="50.9077404" lon="14.2952185">
       <ele>0</ele>
       <time>2008-12-08T10:51:45Z</time>
       <type>Trackpoint</type>
    </trkpt>
    <trkpt lat="50.9075973" lon="14.2949736">
       <ele>0</ele>
       <time>2008-12-08T10:51:45Z</time>
       <type>Trackpoint</type>
    </trkpt>
    <trkpt lat="50.9074576" lon="14.2946528">
       <ele>0</ele>
       <time>2008-12-08T10:51:45Z</time>
       <type>Trackpoint</type>
    </trkpt>
    <trkpt lat="50.9073570" lon="14.2945346">
       <ele>0</ele>
       <time>2008-12-08T10:51:45Z</time>
       <type>Trackpoint</type>
    </trkpt>
    <trkpt lat="50.9071810" lon="14.2943774">
       <ele>0</ele>
       <time>2008-12-08T10:51:45Z</time>
       <type>Trackpoint</type>
    </trkpt>
    <trkpt lat="50.9070536" lon="14.2942104">
       <ele>0</ele>
       <time>2008-12-08T10:51:45Z</time>
       <type>Trackpoint</type>
    </trkpt>
    <trkpt lat="50.9069297" lon="14.2939677">
       <ele>0</ele>
       <time>2008-12-08T10:51:45Z</time>
       <type>Trackpoint</type>
    </trkpt>
    <trkpt lat="50.9068826" lon="14.2935202">
       <ele>0</ele>
       <time>2008-12-08T10:51:45Z</time>
       <type>Trackpoint</type>
    </trkpt>
    <trkpt lat="50.9069012" lon="14.2931107">
       <ele>0</ele>
       <time>2008-12-08T10:51:45Z</time>
       <type>Trackpoint</type>
    </trkpt>
    <trkpt lat="50.9069842" lon="14.2927695">
       <ele>0</ele>
       <time>2008-12-08T10:51:45Z</time>
       <type>Trackpoint</type>
    </trkpt>
    <trkpt lat="50.9070096" lon="14.2924217">
       <ele>0</ele>
       <time>2008-12-08T10:51:45Z</time>
       <type>Trackpoint</type>
    </trkpt>
    <trkpt lat="50.9071681" lon="14.2916927">
       <ele>0</ele>
       <time>2008-12-08T10:51:45Z</time>
       <type>Trackpoint</type>
    </trkpt>
    <trkpt lat="50.9071689" lon="14.2912507">
       <ele>0</ele>
       <time>2008-12-08T10:51:45Z</time>
       <type>Trackpoint</type>
    </trkpt>
    <trkpt lat="50.9071327" lon="14.2909874">
       <ele>0</ele>
       <time>2008-12-08T10:51:45Z</time>
       <type>Trackpoint</type>
    </trkpt>
    <trkpt lat="50.9072848" lon="14.2908218">
       <ele>0</ele>
       <time>2008-12-08T10:51:45Z</time>
       <type>Trackpoint</type>
    </trkpt>
    <trkpt lat="50.9074088" lon="14.2906377">
       <ele>0</ele>
       <time>2008-12-08T10:51:45Z</time>
       <type>Trackpoint</type>
    </trkpt>
    <trkpt lat="50.9074253" lon="14.2904871">
       <ele>0</ele>
       <time>2008-12-08T10:51:45Z</time>
       <type>Trackpoint</type>
    </trkpt>
    <trkpt lat="50.9073233" lon="14.2901859">
       <ele>0</ele>
       <time>2008-12-08T10:51:45Z</time>
       <type>Trackpoint</type>
    </trkpt>
    <trkpt lat="50.9071474" lon="14.2898152">
       <ele>0</ele>
       <time>2008-12-08T10:51:45Z</time>
       <type>Trackpoint</type>
    </trkpt>
    <trkpt lat="50.9071317" lon="14.2895238">
       <ele>0</ele>
       <time>2008-12-08T10:51:45Z</time>
       <type>Trackpoint</type>
    </trkpt>
    <trkpt lat="50.9070756" lon="14.2892735">
       <ele>0</ele>
       <time>2008-12-08T10:51:45Z</time>
       <type>Trackpoint</type>
    </trkpt>
    <trkpt lat="50.9070031" lon="14.2889603">
       <ele>0</ele>
       <time>2008-12-08T10:51:45Z</time>
       <type>Trackpoint</type>
    </trkpt>
    <trkpt lat="50.9068634" lon="14.2886396">
       <ele>0</ele>
       <time>2008-12-08T10:51:45Z</time>
       <type>Trackpoint</type>
    </trkpt>
    <trkpt lat="50.9067677" lon="14.2882018">
       <ele>0</ele>
       <time>2008-12-08T10:51:45Z</time>
       <type>Trackpoint</type>
    </trkpt>
    <trkpt lat="50.9066081" lon="14.2878940">
       <ele>0</ele>
       <time>2008-12-08T10:51:45Z</time>
       <type>Trackpoint</type>
    </trkpt>
    <trkpt lat="50.9064780" lon="14.2875744">
       <ele>0</ele>
       <time>2008-12-08T10:51:45Z</time>
       <type>Trackpoint</type>
    </trkpt>
    <trkpt lat="50.9063829" lon="14.2873349">
       <ele>0</ele>
       <time>2008-12-08T10:51:45Z</time>
       <type>Trackpoint</type>
    </trkpt>
    <trkpt lat="50.9062576" lon="14.2871225">
       <ele>0</ele>
       <time>2008-12-08T10:51:45Z</time>
       <type>Trackpoint</type>
    </trkpt>
    <trkpt lat="50.9061884" lon="14.2869469">
       <ele>0</ele>
       <time>2008-12-08T10:51:45Z</time>
       <type>Trackpoint</type>
    </trkpt>
    <trkpt lat="50.9060413" lon="14.2863661">
       <ele>0</ele>
       <time>2008-12-08T10:51:45Z</time>
       <type>Trackpoint</type>
    </trkpt>
    <trkpt lat="50.9059318" lon="14.2860183">
       <ele>0</ele>
       <time>2008-12-08T10:51:45Z</time>
       <type>Trackpoint</type>
    </trkpt>
    <trkpt lat="50.9057113" lon="14.2855664">
       <ele>0</ele>
       <time>2008-12-08T10:51:45Z</time>
       <type>Trackpoint</type>
    </trkpt>
    <trkpt lat="50.9056052" lon="14.2851428">
       <ele>0</ele>
       <time>2008-12-08T10:51:45Z</time>
       <type>Trackpoint</type>
    </trkpt>
    <trkpt lat="50.9055971" lon="14.2848979">
       <ele>0</ele>
       <time>2008-12-08T10:51:45Z</time>
       <type>Trackpoint</type>
    </trkpt>
    <trkpt lat="50.9055396" lon="14.2844646">
       <ele>0</ele>
       <time>2008-12-08T10:51:45Z</time>
       <type>Trackpoint</type>
    </trkpt>
    <trkpt lat="50.9054383" lon="14.2841482">
       <ele>0</ele>
       <time>2008-12-08T10:51:45Z</time>
       <type>Trackpoint</type>
    </trkpt>
    <trkpt lat="50.9052638" lon="14.2835338">
       <ele>0</ele>
       <time>2008-12-08T10:51:45Z</time>
       <type>Trackpoint</type>
    </trkpt>
    <trkpt lat="50.9051371" lon="14.2831383">
       <ele>0</ele>
       <time>2008-12-08T10:51:45Z</time>
       <type>Trackpoint</type>
    </trkpt>
    <trkpt lat="50.9049975" lon="14.2828176">
       <ele>0</ele>
       <time>2008-12-08T10:51:45Z</time>
       <type>Trackpoint</type>
    </trkpt>
    <trkpt lat="50.9048639" lon="14.2825738">
       <ele>0</ele>
       <time>2008-12-08T10:51:45Z</time>
       <type>Trackpoint</type>
    </trkpt>
    <trkpt lat="50.9046688" lon="14.2822010">
       <ele>0</ele>
       <time>2008-12-08T10:51:45Z</time>
       <type>Trackpoint</type>
    </trkpt>
    <trkpt lat="50.9045894" lon="14.2820395">
       <ele>0</ele>
       <time>2008-12-08T10:51:45Z</time>
       <type>Trackpoint</type>
    </trkpt>
    <trkpt lat="50.9044976" lon="14.2817242">
       <ele>0</ele>
       <time>2008-12-08T10:51:45Z</time>
       <type>Trackpoint</type>
    </trkpt>
    <trkpt lat="50.9043819" lon="14.2815129">
       <ele>0</ele>
       <time>2008-12-08T10:51:45Z</time>
       <type>Trackpoint</type>
    </trkpt>
    <trkpt lat="50.9042230" lon="14.2811900">
       <ele>0</ele>
       <time>2008-12-08T10:51:45Z</time>
       <type>Trackpoint</type>
    </trkpt>
    <trkpt lat="50.9041498" lon="14.2811055">
       <ele>0</ele>
       <time>2008-12-08T10:51:45Z</time>
       <type>Trackpoint</type>
    </trkpt>
    <trkpt lat="50.9038744" lon="14.2812267">
       <ele>0</ele>
       <time>2008-12-08T10:51:45Z</time>
       <type>Trackpoint</type>
    </trkpt>
    <trkpt lat="50.9035983" lon="14.2811496">
       <ele>0</ele>
       <time>2008-12-08T10:51:45Z</time>
       <type>Trackpoint</type>
    </trkpt>
    <trkpt lat="50.9033538" lon="14.2810152">
       <ele>0</ele>
       <time>2008-12-08T10:51:45Z</time>
       <type>Trackpoint</type>
    </trkpt>
    <trkpt lat="50.9030689" lon="14.2807085">
       <ele>0</ele>
       <time>2008-12-08T10:51:45Z</time>
       <type>Trackpoint</type>
    </trkpt>
    <trkpt lat="50.9028305" lon="14.2804375">
       <ele>0</ele>
       <time>2008-12-08T10:51:45Z</time>
       <type>Trackpoint</type>
    </trkpt>
    <trkpt lat="50.9025922" lon="14.2801666">
       <ele>0</ele>
       <time>2008-12-08T10:51:45Z</time>
       <type>Trackpoint</type>
    </trkpt>
    <trkpt lat="50.9022717" lon="14.2797949">
       <ele>0</ele>
       <time>2008-12-08T10:51:45Z</time>
       <type>Trackpoint</type>
    </trkpt>
    <trkpt lat="50.9020484" lon="14.2796171">
       <ele>0</ele>
       <time>2008-12-08T10:51:45Z</time>
       <type>Trackpoint</type>
    </trkpt>
    <trkpt lat="50.9017971" lon="14.2792075">
       <ele>0</ele>
       <time>2008-12-08T10:51:45Z</time>
       <type>Trackpoint</type>
    </trkpt>
    <trkpt lat="50.9016443" lon="14.2789615">
       <ele>0</ele>
       <time>2008-12-08T10:51:45Z</time>
       <type>Trackpoint</type>
    </trkpt>
    <trkpt lat="50.9015526" lon="14.2788597">
       <ele>0</ele>
       <time>2008-12-08T10:51:45Z</time>
       <type>Trackpoint</type>
    </trkpt>
    <trkpt lat="50.9015355" lon="14.2785986">
       <ele>0</ele>
       <time>2008-12-08T10:51:45Z</time>
       <type>Trackpoint</type>
    </trkpt>
    <trkpt lat="50.9015020" lon="14.2782747">
       <ele>0</ele>
       <time>2008-12-08T10:51:45Z</time>
       <type>Trackpoint</type>
    </trkpt>
    <trkpt lat="50.9013637" lon="14.2779236">
       <ele>0</ele>
       <time>2008-12-08T10:51:45Z</time>
       <type>Trackpoint</type>
    </trkpt>
    <trkpt lat="50.9013493" lon="14.2776019">
       <ele>0</ele>
       <time>2008-12-08T10:51:45Z</time>
       <type>Trackpoint</type>
    </trkpt>
    <trkpt lat="50.9013056" lon="14.2766519">
       <ele>0</ele>
       <time>2008-12-08T10:51:45Z</time>
       <type>Trackpoint</type>
    </trkpt>
    <trkpt lat="50.9012673" lon="14.2764341">
       <ele>0</ele>
       <time>2008-12-08T10:51:45Z</time>
       <type>Trackpoint</type>
    </trkpt>
    <trkpt lat="50.9011886" lon="14.2760441">
       <ele>0</ele>
       <time>2008-12-08T10:51:45Z</time>
       <type>Trackpoint</type>
    </trkpt>
    <trkpt lat="50.9010345" lon="14.2758285">
       <ele>0</ele>
       <time>2008-12-08T10:51:45Z</time>
       <type>Trackpoint</type>
    </trkpt>
    <trkpt lat="50.9005818" lon="14.2753961">
       <ele>0</ele>
       <time>2008-12-08T10:51:45Z</time>
       <type>Trackpoint</type>
    </trkpt>
    <trkpt lat="50.9003030" lon="14.2749530">
       <ele>0</ele>
       <time>2008-12-08T10:51:45Z</time>
       <type>Trackpoint</type>
    </trkpt>
    <trkpt lat="50.9000612" lon="14.2747579">
       <ele>0</ele>
       <time>2008-12-08T10:51:45Z</time>
       <type>Trackpoint</type>
    </trkpt>
    <trkpt lat="50.8998462" lon="14.2746116">
       <ele>0</ele>
       <time>2008-12-08T10:51:45Z</time>
       <type>Trackpoint</type>
    </trkpt>
    <trkpt lat="50.8996598" lon="14.2744685">
       <ele>0</ele>
       <time>2008-12-08T10:51:45Z</time>
       <type>Trackpoint</type>
    </trkpt>
    <trkpt lat="50.8994996" lon="14.2739626">
       <ele>0</ele>
       <time>2008-12-08T10:51:45Z</time>
       <type>Trackpoint</type>
    </trkpt>
    <trkpt lat="50.8993133" lon="14.2736062">
       <ele>0</ele>
       <time>2008-12-08T10:51:45Z</time>
       <type>Trackpoint</type>
    </trkpt>
    <trkpt lat="50.8992058" lon="14.2734263">
       <ele>0</ele>
       <time>2008-12-08T10:51:45Z</time>
       <type>Trackpoint</type>
    </trkpt>
    <trkpt lat="50.8990024" lon="14.2732356">
       <ele>0</ele>
       <time>2008-12-08T10:51:45Z</time>
       <type>Trackpoint</type>
    </trkpt>
    <trkpt lat="50.8989435" lon="14.2730460">
       <ele>0</ele>
       <time>2008-12-08T10:51:45Z</time>
       <type>Trackpoint</type>
    </trkpt>
    <trkpt lat="50.8989511" lon="14.2726658">
       <ele>0</ele>
       <time>2008-12-08T10:51:45Z</time>
       <type>Trackpoint</type>
    </trkpt>
    <trkpt lat="50.8988696" lon="14.2723365">
       <ele>0</ele>
       <time>2008-12-08T10:51:45Z</time>
       <type>Trackpoint</type>
    </trkpt>
    <trkpt lat="50.8987758" lon="14.2720668">
       <ele>0</ele>
       <time>2008-12-08T10:51:45Z</time>
       <type>Trackpoint</type>
    </trkpt>
    <trkpt lat="50.8985703" lon="14.2717082">
       <ele>0</ele>
       <time>2008-12-08T10:51:45Z</time>
       <type>Trackpoint</type>
    </trkpt>
    <trkpt lat="50.8984210" lon="14.2713864">
       <ele>0</ele>
       <time>2008-12-08T10:51:45Z</time>
       <type>Trackpoint</type>
    </trkpt>
    <trkpt lat="50.8982676" lon="14.2709423">
       <ele>0</ele>
       <time>2008-12-08T10:51:45Z</time>
       <type>Trackpoint</type>
    </trkpt>
    <trkpt lat="50.8982279" lon="14.2705415">
       <ele>0</ele>
       <time>2008-12-08T10:51:45Z</time>
       <type>Trackpoint</type>
    </trkpt>
    <trkpt lat="50.8979848" lon="14.2703768">
       <ele>0</ele>
       <time>2008-12-08T10:51:45Z</time>
       <type>Trackpoint</type>
    </trkpt>
    <trkpt lat="50.8977484" lon="14.2702738">
       <ele>0</ele>
       <time>2008-12-08T10:51:45Z</time>
       <type>Trackpoint</type>
    </trkpt>
    <trkpt lat="50.8971936" lon="14.2701805">
       <ele>0</ele>
       <time>2008-12-08T10:51:45Z</time>
       <type>Trackpoint</type>
    </trkpt>
    <trkpt lat="50.8968935" lon="14.2699941">
       <ele>0</ele>
       <time>2008-12-08T10:51:45Z</time>
       <type>Trackpoint</type>
    </trkpt>
    <trkpt lat="50.8966353" lon="14.2697363">
       <ele>0</ele>
       <time>2008-12-08T10:51:45Z</time>
       <type>Trackpoint</type>
    </trkpt>
    <trkpt lat="50.8962216" lon="14.2692932">
       <ele>0</ele>
       <time>2008-12-08T10:51:45Z</time>
       <type>Trackpoint</type>
    </trkpt>
    <trkpt lat="50.8961894" lon="14.2689390">
       <ele>0</ele>
       <time>2008-12-08T10:51:45Z</time>
       <type>Trackpoint</type>
    </trkpt>
    <trkpt lat="50.8961039" lon="14.2682739">
       <ele>0</ele>
       <time>2008-12-08T10:51:45Z</time>
       <type>Trackpoint</type>
    </trkpt>
    <trkpt lat="50.8960306" lon="14.2677627">
       <ele>0</ele>
       <time>2008-12-08T10:51:45Z</time>
       <type>Trackpoint</type>
    </trkpt>
    <trkpt lat="50.8960019" lon="14.2669059">
       <ele>0</ele>
       <time>2008-12-08T10:51:45Z</time>
       <type>Trackpoint</type>
    </trkpt>
    <trkpt lat="50.8959293" lon="14.2665928">
       <ele>0</ele>
       <time>2008-12-08T10:51:45Z</time>
       <type>Trackpoint</type>
    </trkpt>
    <trkpt lat="50.8957382" lon="14.2661292">
       <ele>0</ele>
       <time>2008-12-08T10:51:45Z</time>
       <type>Trackpoint</type>
    </trkpt>
    <trkpt lat="50.8955341" lon="14.2655270">
       <ele>0</ele>
       <time>2008-12-08T10:51:45Z</time>
       <type>Trackpoint</type>
    </trkpt>
    <trkpt lat="50.8953129" lon="14.2648771">
       <ele>0</ele>
       <time>2008-12-08T10:51:45Z</time>
       <type>Trackpoint</type>
    </trkpt>
    <trkpt lat="50.8952026" lon="14.2645445">
       <ele>0</ele>
       <time>2008-12-08T10:51:45Z</time>
       <type>Trackpoint</type>
    </trkpt>
    <trkpt lat="50.8950005" lon="14.2643236">
       <ele>0</ele>
       <time>2008-12-08T10:51:45Z</time>
       <type>Trackpoint</type>
    </trkpt>
    <trkpt lat="50.8947526" lon="14.2640517">
       <ele>0</ele>
       <time>2008-12-08T10:51:45Z</time>
       <type>Trackpoint</type>
    </trkpt>
    <trkpt lat="50.8945430" lon="14.2637841">
       <ele>0</ele>
       <time>2008-12-08T10:51:45Z</time>
       <type>Trackpoint</type>
    </trkpt>
    <trkpt lat="50.8944464" lon="14.2635751">
       <ele>0</ele>
       <time>2008-12-08T10:51:45Z</time>
       <type>Trackpoint</type>
    </trkpt>
    <trkpt lat="50.8942998" lon="14.2629793">
       <ele>0</ele>
       <time>2008-12-08T10:51:45Z</time>
       <type>Trackpoint</type>
    </trkpt>
    <trkpt lat="50.8941937" lon="14.2625558">
       <ele>0</ele>
       <time>2008-12-08T10:51:45Z</time>
       <type>Trackpoint</type>
    </trkpt>
    <trkpt lat="50.8941457" lon="14.2623370">
       <ele>0</ele>
       <time>2008-12-08T10:51:45Z</time>
       <type>Trackpoint</type>
    </trkpt>
    <trkpt lat="50.8943485" lon="14.2619027">
       <ele>0</ele>
       <time>2008-12-08T10:51:45Z</time>
       <type>Trackpoint</type>
    </trkpt>
    <trkpt lat="50.8948938" lon="14.2607146">
       <ele>0</ele>
       <time>2008-12-08T10:51:45Z</time>
       <type>Trackpoint</type>
    </trkpt>
    <trkpt lat="50.8950185" lon="14.2605153">
       <ele>0</ele>
       <time>2008-12-08T10:51:45Z</time>
       <type>Trackpoint</type>
    </trkpt>
    <trkpt lat="50.8953042" lon="14.2601666">
       <ele>0</ele>
       <time>2008-12-08T10:51:45Z</time>
       <type>Trackpoint</type>
    </trkpt>
    <trkpt lat="50.8953035" lon="14.2597550">
       <ele>0</ele>
       <time>2008-12-08T10:51:45Z</time>
       <type>Trackpoint</type>
    </trkpt>
    <trkpt lat="50.8953405" lon="14.2593629">
       <ele>0</ele>
       <time>2008-12-08T10:51:45Z</time>
       <type>Trackpoint</type>
    </trkpt>
    <trkpt lat="50.8954186" lon="14.2591278">
       <ele>0</ele>
       <time>2008-12-08T10:51:45Z</time>
       <type>Trackpoint</type>
    </trkpt>
    <trkpt lat="50.8955480" lon="14.2590358">
       <ele>0</ele>
       <time>2008-12-08T10:51:45Z</time>
       <type>Trackpoint</type>
    </trkpt>
    <trkpt lat="50.8954001" lon="14.2586838">
       <ele>0</ele>
       <time>2008-12-08T10:51:45Z</time>
       <type>Trackpoint</type>
    </trkpt>
    <trkpt lat="50.8954083" lon="14.2582884">
       <ele>0</ele>
       <time>2008-12-08T10:51:45Z</time>
       <type>Trackpoint</type>
    </trkpt>
    <trkpt lat="50.8956953" lon="14.2583361">
       <ele>0</ele>
       <time>2008-12-08T10:51:45Z</time>
       <type>Trackpoint</type>
    </trkpt>
    <trkpt lat="50.8959919" lon="14.2583848">
       <ele>0</ele>
       <time>2008-12-08T10:51:45Z</time>
       <type>Trackpoint</type>
    </trkpt>
    <trkpt lat="50.8961180" lon="14.2583686">
       <ele>0</ele>
       <time>2008-12-08T10:51:45Z</time>
       <type>Trackpoint</type>
    </trkpt>
    <trkpt lat="50.8961152" lon="14.2582158">
       <ele>0</ele>
       <time>2008-12-08T10:51:45Z</time>
       <type>Trackpoint</type>
    </trkpt>
    <trkpt lat="50.8960255" lon="14.2580685">
       <ele>0</ele>
       <time>2008-12-08T10:51:45Z</time>
       <type>Trackpoint</type>
    </trkpt>
    <trkpt lat="50.8958769" lon="14.2579451">
       <ele>0</ele>
       <time>2008-12-08T10:51:45Z</time>
       <type>Trackpoint</type>
    </trkpt>
    <trkpt lat="50.8957323" lon="14.2575172">
       <ele>0</ele>
       <time>2008-12-08T10:51:45Z</time>
       <type>Trackpoint</type>
    </trkpt>
    <trkpt lat="50.8955884" lon="14.2570742">
       <ele>0</ele>
       <time>2008-12-08T10:51:45Z</time>
       <type>Trackpoint</type>
    </trkpt>
    <trkpt lat="50.8954932" lon="14.2566215">
       <ele>0</ele>
       <time>2008-12-08T10:51:45Z</time>
       <type>Trackpoint</type>
    </trkpt>
    <trkpt lat="50.8954994" lon="14.2562716">
       <ele>0</ele>
       <time>2008-12-08T10:51:45Z</time>
       <type>Trackpoint</type>
    </trkpt>
    <trkpt lat="50.8953733" lon="14.2558611">
       <ele>0</ele>
       <time>2008-12-08T10:51:45Z</time>
       <type>Trackpoint</type>
    </trkpt>
    <trkpt lat="50.8950801" lon="14.2555232">
       <ele>0</ele>
       <time>2008-12-08T10:51:45Z</time>
       <type>Trackpoint</type>
    </trkpt>
    <trkpt lat="50.8947828" lon="14.2550629">
       <ele>0</ele>
       <time>2008-12-08T10:51:45Z</time>
       <type>Trackpoint</type>
    </trkpt>
    <trkpt lat="50.8948232" lon="14.2545950">
       <ele>0</ele>
       <time>2008-12-08T10:51:45Z</time>
       <type>Trackpoint</type>
    </trkpt>
    <trkpt lat="50.8948924" lon="14.2541303">
       <ele>0</ele>
       <time>2008-12-08T10:51:45Z</time>
       <type>Trackpoint</type>
    </trkpt>
    <trkpt lat="50.8949862" lon="14.2533331">
       <ele>0</ele>
       <time>2008-12-08T10:51:45Z</time>
       <type>Trackpoint</type>
    </trkpt>
    <trkpt lat="50.8949903" lon="14.2528154">
       <ele>0</ele>
       <time>2008-12-08T10:51:45Z</time>
       <type>Trackpoint</type>
    </trkpt>
    <trkpt lat="50.8948697" lon="14.2518569">
       <ele>0</ele>
       <time>2008-12-08T10:51:45Z</time>
       <type>Trackpoint</type>
    </trkpt>
    <trkpt lat="50.8945949" lon="14.2511095">
       <ele>0</ele>
       <time>2008-12-08T10:51:45Z</time>
       <type>Trackpoint</type>
    </trkpt>
    <trkpt lat="50.8943318" lon="14.2505312">
       <ele>0</ele>
       <time>2008-12-08T10:51:45Z</time>
       <type>Trackpoint</type>
    </trkpt>
    <trkpt lat="50.8943379" lon="14.2499680">
       <ele>0</ele>
       <time>2008-12-08T10:51:45Z</time>
       <type>Trackpoint</type>
    </trkpt>
    <trkpt lat="50.8943132" lon="14.2492336">
       <ele>0</ele>
       <time>2008-12-08T10:51:45Z</time>
       <type>Trackpoint</type>
    </trkpt>
    <trkpt lat="50.8941028" lon="14.2481278">
       <ele>0</ele>
       <time>2008-12-08T10:51:45Z</time>
       <type>Trackpoint</type>
    </trkpt>
    <trkpt lat="50.8940370" lon="14.2476632">
       <ele>0</ele>
       <time>2008-12-08T10:51:45Z</time>
       <type>Trackpoint</type>
    </trkpt>
    <trkpt lat="50.8940877" lon="14.2469678">
       <ele>0</ele>
       <time>2008-12-08T10:51:45Z</time>
       <type>Trackpoint</type>
    </trkpt>
    <trkpt lat="50.8942253" lon="14.2462670">
       <ele>0</ele>
       <time>2008-12-08T10:51:45Z</time>
       <type>Trackpoint</type>
    </trkpt>
    <trkpt lat="50.8944135" lon="14.2452976">
       <ele>0</ele>
       <time>2008-12-08T10:51:45Z</time>
       <type>Trackpoint</type>
    </trkpt>
    <trkpt lat="50.8942113" lon="14.2442232">
       <ele>0</ele>
       <time>2008-12-08T10:51:45Z</time>
       <type>Trackpoint</type>
    </trkpt>
    <trkpt lat="50.8940325" lon="14.2437001">
       <ele>0</ele>
       <time>2008-12-08T10:51:45Z</time>
       <type>Trackpoint</type>
    </trkpt>
    <trkpt lat="50.8939454" lon="14.2428521">
       <ele>0</ele>
       <time>2008-12-08T10:51:45Z</time>
       <type>Trackpoint</type>
    </trkpt>
    <trkpt lat="50.8937048" lon="14.2417734">
       <ele>0</ele>
       <time>2008-12-08T10:51:45Z</time>
       <type>Trackpoint</type>
    </trkpt>
    <trkpt lat="50.8936225" lon="14.2412459">
       <ele>0</ele>
       <time>2008-12-08T10:51:45Z</time>
       <type>Trackpoint</type>
    </trkpt>
    <trkpt lat="50.8935546" lon="14.2406134">
       <ele>0</ele>
       <time>2008-12-08T10:51:45Z</time>
       <type>Trackpoint</type>
    </trkpt>
    <trkpt lat="50.8932688" lon="14.2401088">
       <ele>0</ele>
       <time>2008-12-08T10:51:45Z</time>
       <type>Trackpoint</type>
    </trkpt>
    <trkpt lat="50.8928405" lon="14.2393443">
       <ele>0</ele>
       <time>2008-12-08T10:51:45Z</time>
       <type>Trackpoint</type>
    </trkpt>
    <trkpt lat="50.8927610" lon="14.2387562">
       <ele>0</ele>
       <time>2008-12-08T10:51:45Z</time>
       <type>Trackpoint</type>
    </trkpt>
    <trkpt lat="50.8925910" lon="14.2380361">
       <ele>0</ele>
       <time>2008-12-08T10:51:45Z</time>
       <type>Trackpoint</type>
    </trkpt>
    <trkpt lat="50.8923039" lon="14.2377752">
       <ele>0</ele>
       <time>2008-12-08T10:51:45Z</time>
       <type>Trackpoint</type>
    </trkpt>
    <trkpt lat="50.8920853" lon="14.2377049">
       <ele>0</ele>
       <time>2008-12-08T10:51:45Z</time>
       <type>Trackpoint</type>
    </trkpt>
    <trkpt lat="50.8920865" lon="14.2368211">
       <ele>0</ele>
       <time>2008-12-08T10:51:45Z</time>
       <type>Trackpoint</type>
    </trkpt>
    <trkpt lat="50.8921734" lon="14.2361755">
       <ele>0</ele>
       <time>2008-12-08T10:51:45Z</time>
       <type>Trackpoint</type>
    </trkpt>
    <trkpt lat="50.8923679" lon="14.2357097">
       <ele>0</ele>
       <time>2008-12-08T10:51:45Z</time>
       <type>Trackpoint</type>
    </trkpt>
    <trkpt lat="50.8924911" lon="14.2353273">
       <ele>0</ele>
       <time>2008-12-08T10:51:45Z</time>
       <type>Trackpoint</type>
    </trkpt>
    <trkpt lat="50.8928192" lon="14.2351051">
       <ele>0</ele>
       <time>2008-12-08T10:51:45Z</time>
       <type>Trackpoint</type>
    </trkpt>
    <trkpt lat="50.8931802" lon="14.2347952">
       <ele>0</ele>
       <time>2008-12-08T10:51:45Z</time>
       <type>Trackpoint</type>
    </trkpt>
    <trkpt lat="50.8931507" lon="14.2345937">
       <ele>0</ele>
       <time>2008-12-08T10:51:45Z</time>
       <type>Trackpoint</type>
    </trkpt>
    <trkpt lat="50.8930308" lon="14.2344736">
       <ele>0</ele>
       <time>2008-12-08T10:51:45Z</time>
       <type>Trackpoint</type>
    </trkpt>
    <trkpt lat="50.8927080" lon="14.2339344">
       <ele>0</ele>
       <time>2008-12-08T10:51:45Z</time>
       <type>Trackpoint</type>
    </trkpt>
    <trkpt lat="50.8925092" lon="14.2334243">
       <ele>0</ele>
       <time>2008-12-08T10:51:45Z</time>
       <type>Trackpoint</type>
    </trkpt>
    <trkpt lat="50.8924879" lon="14.2330409">
       <ele>0</ele>
       <time>2008-12-08T10:51:45Z</time>
       <type>Trackpoint</type>
    </trkpt>
    <trkpt lat="50.8923501" lon="14.2324616">
       <ele>0</ele>
       <time>2008-12-08T10:51:45Z</time>
       <type>Trackpoint</type>
    </trkpt>
    <trkpt lat="50.8922322" lon="14.2320826">
       <ele>0</ele>
       <time>2008-12-08T10:51:45Z</time>
       <type>Trackpoint</type>
    </trkpt>
  </trkseg>
</trk>
<extensions>
</extensions>
</gpx>
